This is the latest recevied weather packets stored in our database for station/object N0MR. If no packets are shown the sender has not sent any weather packets the latest 10 day(s).
| Time | Temp. | Humidity | Pressure | Rain* | Wind** | Luminosity | Snow |
|---|---|---|---|---|---|---|---|
| 1777925511 | 8.89° C | 51% | 995.7 hPa | 0 mm | - | - | - |
| 1777924911 | 8.33° C | 55% | 995.4 hPa | 0 mm | - | - | - |
| 1777924310 | 8.33° C | 55% | 995.4 hPa | 0 mm | - | - | - |
| 1777923712 | 8.33° C | 55% | 995.4 hPa | 0 mm | - | - | - |
| 1777923112 | 8.33° C | 55% | 995.4 hPa | 0 mm | - | - | - |
| 1777922512 | 8.89° C | 53% | 995 hPa | 0 mm | - | - | - |
| 1777921911 | 8.89° C | 53% | 995 hPa | 0 mm | - | - | - |
| 1777921312 | 8.33° C | 56% | 994.8 hPa | 0 mm | - | - | - |
| 1777920112 | 8.33° C | 54% | 994.2 hPa | 0 mm | - | - | - |
| 1777918911 | 8.33° C | 58% | 994.2 hPa | 0 mm | - | - | - |
| 1777918311 | 8.33° C | 58% | 994.2 hPa | 0 mm | - | - | - |
| 1777917711 | 8.89° C | 54% | 993.6 hPa | 0 mm | - | - | - |
| 1777916513 | 8.33° C | 59% | 993.3 hPa | 0 mm | - | - | - |
| 1777915912 | 8.33° C | 59% | 993.3 hPa | 0 mm | - | - | - |
| 1777915313 | 8.33° C | 59% | 993.3 hPa | 0 mm | - | - | - |
| 1777914712 | 8.33° C | 64% | 993.3 hPa | 0 mm | - | - | - |
| 1777914112 | 8.33° C | 64% | 993.3 hPa | 0 mm | - | - | - |
| 1777913512 | 7.22° C | 66% | 992.9 hPa | 0 mm | - | - | - |
| 1777912913 | 7.22° C | 66% | 992.9 hPa | 0 mm | - | - | - |
| 1777912313 | 7.22° C | 66% | 992.7 hPa | 0 mm | - | - | - |
| 1777911713 | 7.22° C | 66% | 992.7 hPa | 0 mm | - | - | - |
| 1777911112 | 7.22° C | 67% | 992.2 hPa | 0 mm | - | - | - |
| 1777910512 | 7.22° C | 67% | 992.2 hPa | 0 mm | - | - | - |
| 1777909912 | 8.33° C | 66% | 991.5 hPa | 0 mm | - | - | - |
| 1777909313 | 8.33° C | 66% | 991.5 hPa | 0 mm | - | - | - |
* Rain latest hour (hover to see other rain measurements)
** Current wind speed in m/s (hover to see current wind gust speed)